Location: Chuathbaluk
(61.5726°N, 159.2454°W)
Time: 13:00:27
(UTC+00:00)

XW-2F - Pass Details

Date: 20 January 2021
Orbit: 500 x 520 km, 97.5° (Epoch: 01 March)

Event Time Altitude Azimuth Distance (km) Brightness Sun altitude
Rises 04:45:08 0° 203° (SSW) 2,614 ? -17.2°
Reaches altitude 10° 04:47:37 10° 220° (SW) 1,737 ? -17.5°
Maximum altitude 04:50:29 21° 270° (W) 1,211 ? -17.9°
Drops below altitude 10° 04:53:24 10° 321° (NW) 1,757 ? -18.2°
Sets 04:55:56 0° 338° (NNW) 2,654 ? -18.5°
